Location: Poughquag
(41.6090°N, 73.6820°W)
Time: 12:29:54
(UTC-04:00)

Transit 2A Rocket - Pass Details

Date: 31 May 2020
Orbit: 584 x 919 km, 66.7° (Epoch: 06 July)

Event Time Altitude Azimuth Distance (km) Brightness Sun altitude
Rises 21:25:15 0° 160° (SSE) 3,012 - -10.3°
Reaches altitude 10° 21:28:24 10° 137° (SE) 2,171 - -10.7°
Exits shadow 21:29:55 14° 119° (ESE) 1,953 6.5 -10.9°
Maximum altitude 21:31:10 15° 103° (ESE) 1,912 6.6 -11.1°
Drops below altitude 10° 21:34:04 10° 69° (ENE) 2,306 7.2 -11.5°
Sets 21:37:34 0° 47° (NE) 3,317 8.3 -11.9°
